Tracking 19245 objects as of 14-Aug-2018
HD Live streaming from Space Station
objects crossing your sky now

FLOCK 3P 62

Track FLOCK 3P 62 now!
10-day predictions
FLOCK 3P 62 is classified as:


NORAD ID: 42036
Int'l Code: 2017-008CS
Perigee: 492.1 km
Apogee: 503.3 km
Inclination: 97.4 °
Period: 94.4 minutes
Semi major axis: 6868 km
RCS: Unknown
Launch date: February 15, 2017
Source: United States (US)
Launch site: SRIHARIKOTA (SRI)
aabbcc
Your satellite tracking list
Your tracking list is empty




NASA's NSSDC Master Catalog

Two Line Element Set (TLE):
1 42036U 17008CS  18224.74018795 +.00001892 +00000-0 +78497-4 0  9998
2 42036 097.4462 289.5360 0008177 164.6042 195.5446 15.25077582081902
Source of the keplerian elements: AFSPC